Regional Weather Roundup
Issued by NWS

Home | Current Version | Previous Version | Graphics & Text | Print | Product List | Glossary On
Versions: 1 2 3 4 5 6 7 8 9 10 11 12 13 14 15 16 17 18 19 20 21 22 23 24 25 26 27 28 29 30 31 32 33 34 35 36 37 38 39 40 41 42 43 44 45 46 47 48 49 50
000
ASUS43 KMKX 211611
RWRWI

WISCONSIN REGIONAL WEATHER ROUNDUP
NATIONAL WEATHER SERVICE MILWAUKEE/SULLIVAN WI
1000 AM CST SUN JAN 21 2018

NOTE: "FAIR" INDICATES FEW OR NO CLOUDS BELOW 12,000 FEET WITH NO
SIGNIFICANT WEATHER AND/OR OBSTRUCTIONS TO VISIBILITY.

WIZ001-002-006>008-014>016-023>028-211700-
NORTHWEST WISCONSIN

CITY           SKY/WX    TMP DP  RH WIND       PRES   REMARKS
SUPERIOR ARPT  FAIR      28  26  93 CALM      30.01S
ASHLAND        FAIR      27  27 100 CALM      30.01S FOG
HAYWARD        CLOUDY    30  27  88 CALM      29.98S FOG
SIREN          PTSUNNY   31  29  90 CALM      30.00S
CUMBERLAND     CLOUDY    32  28  86 NE3       29.97S
RICE LAKE      FAIR      33  29  85 N3        29.99S
CHETEK         CLOUDY    34  28  80 CALM      29.99R
LADYSMITH      CLOUDY    34  30  87 N5        29.98F WCI  30
EAU CLAIRE     CLOUDY    33  29  85 N3        29.98S FOG
MENOMONIE      CLOUDY    33  31  92 N3        29.99S
NEW RICHMOND   CLOUDY    33  29  88 CALM      29.98S
OSCEOLA        CLOUDY    32  32 100 CALM      30.01S
$$

WIZ003>005-009-010-017-018-211700-
NORTH CENTRAL WISCONSIN

CITY           SKY/WX    TMP DP  RH WIND       PRES   REMARKS
MANITOWISH WTR CLOUDY    28  28 100 CALM      29.97R FOG
ARBOR VITAE    CLOUDY    32  30  94 CALM      29.97R FOG
WOODRUFF       CLOUDY    32  30  94 CALM      29.97R FOG
RHINELANDER    CLOUDY    35  31  85 N5        29.97R WCI  31
EAGLE RIVER    FAIR      28  28 100 CALM      29.96R FOG
LAND O LAKES   CLOUDY    30  30 100 CALM      29.98R FOG
PHILLIPS       CLOUDY    31  30  96 NE3       29.97R
TOMAHAWK       CLOUDY    33  30  88 CALM      29.97R
MEDFORD        CLOUDY    35  30  82 E3        29.96R
MERRILL        CLOUDY    32  31  93 CALM      29.98R
$$

WIZ029-030-035-036-043>047-211700-
CENTRAL WISCONSIN

CITY           SKY/WX    TMP DP  RH WIND       PRES   REMARKS
WAUSAU         CLOUDY    35  30  82 N3        29.95R
MOSINEE        PTSUNNY   36  32  87 NE5       29.97R WCI  32
MARSHFIELD     CLOUDY    36  31  82 E6        29.95R WCI  31
STEVENS POINT  FAIR      31  31 100 CALM      29.97R
WAUPACA        FAIR      32  30  94 CALM      29.98S FOG
WAUTOMA        FOG       30  28  92 CALM      29.98S VSB<1/4
WISC RAPIDS    FAIR      32  31  96 CALM      29.98R FOG
CAMP DOUGLAS   PTSUNNY   32  32 100 CALM      29.97R FOG
$$

WIZ011>013-019>022-031-037>040-048>050-211700-
NORTHEAST WISCONSIN

CITY           SKY/WX    TMP DP  RH WIND       PRES   REMARKS
ANTIGO         CLOUDY    33  31  91 CALM      29.97R
SHAWANO        FAIR      33  31  90 CALM      29.98R
OCONTO         CLOUDY    37  32  82 CALM      29.99S
STURGEON BAY   FAIR      36  31  82 SW3       30.00R
GREEN BAY      FAIR      34  30  85 CALM      29.99R FOG
MANITOWOC      FAIR      37  35  92 SW3       29.99S FOG
APPLETON       FOG       30  30 100 CALM      29.96R VSB 1/2
CLINTONVILLE   FAIR      32  30  93 CALM      29.98R FOG
OSHKOSH        FOG       30  30 100 S5        29.97S VSB 1/4 WCI  25
$$

WIZ032>034-041-042-053>061-211700-
SOUTHWEST WISCONSIN

CITY           SKY/WX    TMP DP  RH WIND       PRES   REMARKS
LA CROSSE      FOG       27  25  92 N3        29.98R VSB<1/4
SPARTA         FAIR      27  27 100 CALM      29.98S FOG
VIROQUA          N/A     35  35 100 CALM      29.95R
BOSCOBEL       FOG       31  29  92 VRB3      29.97S VSB<1/4
PRAIRIE DU CHI FOG       29  28  96 CALM      29.96S VSB 3/4
PLATTEVILLE    FAIR      35  35 100 E5        29.95R WCI  31
$$

WIZ056-057-062-063-064-067-068-211700-
SOUTH CENTRAL WISCONSIN

CITY           SKY/WX    TMP DP  RH WIND       PRES   REMARKS
REEDSBURG      FOG       27  27 100 CALM      29.97R VSB<1/4
BARABOO/DELLS  FAIR      31  31  99 CALM      29.96R FOG
LONE ROCK      FOG       30  30 100 CALM      29.97R VSB<1/4
MINERAL POINT  CLOUDY    37  37 100 CALM      29.94S FOG
MADISON        CLOUDY    34  33  96 CALM      29.97S FOG
MIDDLETON      CLOUDY    35  35 100 CALM      29.97S
WATERTOWN      CLOUDY    35  35 100 CALM      29.97R FOG
MONROE         FOG       34  34 100 NE6       29.95R VSB 1/4 WCI  29
JANESVILLE     CLOUDY    37  37 100 CALM      29.96R FOG
$$

WIZ051-052-058>065-066-070>072-211700-
SOUTHEAST WISCONSIN

CITY           SKY/WX    TMP DP  RH WIND       PRES   REMARKS
MILWAUKEE      CLOUDY    38  36  92 CALM      29.98S FOG
WAUKESHA       CLOUDY    34  34 100 CALM      29.98S FOG
MILWAUKEE/TIMM CLOUDY    36  34  93 CALM      29.99S FOG
RACINE         CLOUDY    37  35  92 CALM      30.00R FOG
BURLINGTON     CLOUDY    36  34  92 CALM      29.97S FOG
KENOSHA        CLOUDY    39  36  89 E3        29.98R FOG
FOND DU LAC    FOG       33  32  96 CALM      29.97S VSB 1/4
SHEBOYGAN      FOG       32  32 100 SW5       29.98S VSB<1/4 WCI  27
WEST BEND      FOG       34  34 100 CALM      29.98S VSB<1/4
JUNEAU         FOG       32  32 100 CALM      29.98S VSB 1/2
$$

LSZ147-162-211700-
LAKE SUPERIOR

STATION/POSITION TIME  TEMP    WIND        PRES    WAVE
                       AIR SEA DIR/SP/G            HT/PER
                 (UTC) (F)     (DEG/KT/KT) (MB)    (FT/S)
DEVILS ISLAND    1600   29      CALM  /  3 1017.4R
SAXON HARBOR     1530   30      CALM  /  2 1015.9R
$$

LMZ867-665-643>646-211700-
LAKE MICHIGAN

STATION/POSITION TIME  TEMP    WIND        PRES    WAVE
                       AIR SEA DIR/SP/G            HT/PER
                 (UTC) (F)     (DEG/KT/KT) (MB)    (FT/S)
NORTHPORT PIER   1540   36     160/  3/  5 1015.6R
KEWAUNEE LAKESHO 1542   35      CALM  /  2 1014.6R
SHEBOYGAN LAKESH 1600   33     230/  7/  8 1016.1R
PORT WASHINGTON  1530   38     170/  3/  4 1016.6R
MILWAUKEE LAKESH 1550   35      40/  2/  3   N/A
KENOSHA   LAKESH 1600   35      CALM  /  2 1015.6
$$

TC  - TEMPERATURE IN CELSIUS
VSB - VISIBILITY IN STATUTE MILES
WCI - WIND CHILL INDEX
HX  - HEAT INDEX





USA.gov is the U.S. government's official web portal to all federal, state and local government web resources and services.